カタログに戻る

YAOGAN-43 O1J

運用中軍事VLEO
NORAD 60466·PAYLOAD·🇨🇳 China

打ち上げ Aug 16, 2024 から Xichang Satellite Launch Center

Loading…

次のパス (今後24時間)

TLE

最新Source: Space-Track

元期: Sep 14, 2026, 12:35 UTC

1 60466U 24148J   26257.52487839  .00010993  00000-0  28230-3 0  9999
2 60466  34.9909 279.3012 0005959 355.8890   4.1779 15.38469791116197

AllMySatでYAOGAN-43 O1Jをリアルタイム追跡

Download on the App Store